Погода Геокчаы

Погода Геокчаы : погода сейчас, прогноз погоды и архив. Всё, что Вы хотите узнать о погоде Геокчаы!

Поиск расширенной информации на нашем сайте:

Другие новости

Новости СМИ2

Главная страница сайта

Новости сайта

03.07.2017

Напоминаем, что на нашем специализированном сайте Метеоцентр.Азия вы можете получить высокодетализированные автоматические прогнозы погоды по пунктам России, СНГ и мира в авиационном формате (включающие направление и скорость ветра, видимость, явления погоды, количество и форму облачности, нижнюю и верхнюю границу облачности).


Погода Геокчаы - сегодня

Время (UTC), дата Ветер
(°,м/с) 
Видим.   Явления Облачность Т
(°С)
Тd
(°С)
f(%) Тe
(°С)
Pmin
(гПа)
dP
(гПа)
Po
(мм)
O2
(г/м3)
Тmin Tmax R s Состояние
почвы
12 13.08.18 180 (Ю) 20000 м    10/3 600 м кучево-дожд., средняя 
[Cb calv|Ac As]
+29.2 +12.3 35 +34  1010.6  -1.4  750  271           
15 13.08.18 250 (З) 20000 м    10/4 600 м кучево-дожд., средняя 
[Cb calv|Ac As]
+27.9 +14.1 43 +35  1010.8  0.2  750  271           
21 13.08.18 180 (Ю) 20000 м    9/3 600 м кучево-дожд., средняя 
[Cb calv|Ac As]
+23.8 +16.4 63 +35  1013.2  0.6  752  275           
00 14.08.18 тихо ()   20000 м    10/4 600 м кучево-дожд., средняя 
[Cb calv|Ac As]
+22.6 +17.1 71 +35  1013.4  0.1  752  276           
03 14.08.18 200 (Ю) 20000 м    10/4 600 м кучево-дожд., средняя 
[Cb calv|Ac As]
+22.4 +16.5 69 +34  1014.4  753  277           
06 14.08.18 250 (З) 20000 м    10/4 600 м кучево-дожд., средняя 
[Cb calv|Ac As]
+24.4 +17.9 67 +38  1015.5  1.1  753  275  +22.3         
09 14.08.18 270 (З) 20000 м    8/0 кучево-дожд., средняя 
[Cb calv|Ac As]
+27.3 +17.5 55 +40  1015  -0.5  753  272           
12 14.08.18 180 (Ю) 20000 м    10/3 600 м кучево-дожд., средняя 
[Cb calv|Ac As]
+28.5 +17.1 50 +41  1013.5  -1.3  752  271           
15 14.08.18 270 (З) 20000 м    10/3 600 м кучево-дожд., средняя 
[Cb calv|Ac As]
+27.7 +17.6 54 +41  1013.5  752  271           
18 14.08.18 360 (С) 20000 м    10/4 600 м кучево-дожд., средняя 
[Cb calv|Ac As]
+26.4 +16.2 53 +37  1015  1.4  753  273    +28.7       
21 14.08.18 230 (ЮЗ) 20000 м    10/4 600 м кучево-дожд., средняя 
[Cb calv|Ac As]
+25 +16.9 61 +37  1015.8  0.8  754  275           
00 15.08.18 050 (СВ) 20000 м    9/3 600 м кучево-дожд., средняя 
[Cb calv|Ac As]
+22.3 +18.4 79 +37  1014.7  -1.2  753  276           
03 15.08.18 360 (С) 20000 м    10/4 600 м кучево-дожд., средняя 
[Cb calv|Ac As]
+22.5 +16.9 71 +35  1015.5  0.7  753  277           
09 15.08.18 320 (СЗ) 20000 м  в посл. час гроза{ливн. осадки}  10/4 600 м кучево-дожд., средняя 
[Cb calv|Ac As]
+22.9 +18 74 +37  1016.2  754  276           
12 15.08.18 200 (Ю) 20000 м    8/3 600 м кучево-дожд., средняя 
[Cb calv|Ac As]
+28.8 +15.7 45 +39  1014.7  -1.4  753  271           
15 15.08.18 250 (З) 20000 м    10/3 600 м кучево-дожд., средняя 
[Cb calv|Ac As]
+27.2 +16.4 52 +38  1014.5  -0.2  753  272           
21 15.08.18 200 (Ю) 20000 м    6/0 средняя 
[Ac As]
+22.2 +16.4 70 +33  1016.3  0.1  754  277           
00 16.08.18 230 (ЮЗ) 20000 м    8/3 600 м кучево-дожд., средняя 
[Cb calv|Ac As]
+21.8 +16.7 73 +33  1016.4  0.1  754  278           
03 16.08.18 тихо ()   20000 м    10/3 600 м кучево-дожд., средняя 
[Cb calv|Ac As]
+22.3 +17.1 72 +35  1016.9  0.5  754  277           
06 16.08.18 230 (ЮЗ) 20000 м    3/0 верхняя 
[Cs]
+27.2 +17.4 55 +40  1016.4  -0.2  754  273  +21.7         
09 16.08.18 180 (Ю) 20000 м    3/3 1000 м 
[Cu med, cong]
+30.7 +15.9 41 +41  1014.5  -1.8  753  269           
12 16.08.18 230 (ЮЗ) 20000 м    ясно 
+33.2 +13.9 31 +40  1012.4  -2  751  267           
15 16.08.18 200 (Ю) 20000 м    3/0 средняя 
[Ac cast]
+31.3 +14.5 36 +39  1012  -0.5  751  269           
18 16.08.18 200 (Ю) 20000 м    ясно 
+25.4 +16.5 58 +37  1013.2  1.1  752  274    +33.4       
21 16.08.18 090 (В) 20000 м    ясно 
+23.4 +17.4 69 +36  1013.4  0.1  752  275           
Время (UTC), дата Ветер
(°,м/с) 
Видим.   Явления Облачность Т
(°С)
Тd
(°С)
f(%) Тe
(°С)
Pmin
(гПа)
dP
(гПа)
Po
(мм)
O2
(г/м3)
Тmin Tmax R s Состояние
почвы

Для получения пояснительной информации подведите курсор к названию столбца.

ПОГОДА Геокчаы - архив

Всё, что Вы хотите узнать о погоде Геокчаы - удобно и подробно!

Выберите нужную дату (начиная с 1 января 2015* года) и нажмите кнопку "Найти".
Будут отображены архивные сводки погоды по пункту Геокчаы, начиная с указанной даты.


Отображать данные в формате CSV (для использования в таблицах Excel)


Внимание! Наш архив погоды предназначен исключительно для личного некоммерческого использования в познавательных целях. Если Вам необходимы официальные справки о состоянии погоды (для производственных, юридических, коммерческих и т.п. целей), обращайтесь в органы Росгидромета.

*Примечание: данная дата относится к архиву по метеостанциям СССР (Россия, СНГ, Балтия).
Архив по метеостанциям Зарубежной Европы и Азии (кроме Китая) хранится 10 дней, по другим регионам земного шара (Китай, Африка, Америка, Австралия, Океания) - 1 день.

Геокчаы - район местоположения метеостанции


Название, широта, долгота, высота метеостанции:
Геокчаы 40.6°ш. 47.8°д. 95 м над ур. моря [Азербайджан]

Дополнительная информация

В oтличие oт бoльшинства пoгoдных сайтoв мы публикуем пoдрoбную метеoинфoрмацию в детальнoм прoфессиoнальнoм фoрмате.

Характеристики температуры и влажнoсти вoздуха измеряются на высoте 2 м в тени вдали oт зданий и деревьев.
Скoрoсть ветра измеряется на высoте 10 м (на урoвне рoста челoвека скoрoсть ветра ниже в 1.5-2 раза). Если метеoстанция нахoдится в гoрoде или в лесу, тo скoрoсть ветра занижена на 2-4 м/с пo сравнению с oткрытым местoм. Скoрoсть ветра над акватoриями крупных рек и oзёр, а также на вершинах хoлмoв на 2-5 м/с выше, чем в oбычных услoвиях.
Атмoсфернoе давление в разных тoчках местнoсти мoжет значительнo oтличаться oт давления на метеoстанции, в зависимoсти oт услoвий рельефа (при пoдъёме на 10 м давление пoнижается примернo на 1 мм рт.ст.).